Home   Weather   Pembroke Pines   Past weeks

Flag for USA Past Weather in Pembroke Pines, Florida, USA — Yesterday and Last 2 Weeks

72 °F


Feels Like: 75 °F
Forecast: 70 / 78 °F
Wind: 7 mph from Northwest

Location: North Perry Airport

Current Time: Oct 24, 2016 at 8:35:33 AM

Latest Report: Oct 24, 2016 at 7:53 AM

Visibility: 10 mi

Pressure: 30.17 "Hg

Humidity: 66%

Dew Point: 60 °F

Location of Pembroke PinesLocation

Past Weather in Pembroke Pines — Graph


Pembroke Pines Temperature Yesterday

Maximum temperature yesterday: 81 °F (at 12:53 PM)
Minimum temperature yesterday: 63 °F (at 6:53 AM)
Average temperature yesterday: 73 °F

High & Low Weather Summary for the Past Weeks

High88 °F (Oct 9, 11:53 AM)94% (Oct 12, 11:53 PM)30.17 "Hg (Oct 12, 11:53 PM)
Low63 °F (Oct 23, 6:53 AM)36% (Oct 22, 4:53 PM)29.79 "Hg (Oct 21, 3:53 PM)
Average78 °F68%29.99 "Hg
* Reported Oct 9 6:53 AM — Oct 24 6:53 AM, Pembroke Pines, Weather by CustomWeather, © 2016

Note: Actual official high and low records may vary slightly from our data, if they occured in-between our weather recording intervals... More about our weather records


Pembroke Pines Weather History for the Previous 24 Hours

Scroll right to see more
Time TempWeatherWind HumidityBarometerVisibility
6:53 AM
Mon, Oct 24
72 °FOvercast.No wind64%30.16 "Hg10 mi
5:53 AM73 °FOvercast.6 mph57%30.15 "Hg10 mi
4:53 AM72 °FPassing clouds.3 mph59%30.14 "Hg10 mi
3:53 AM72 °FPassing clouds.7 mph57%30.14 "Hg10 mi
2:53 AM73 °FPassing clouds.8 mph53%30.14 "Hg10 mi
1:53 AM75 °FOvercast.7 mph54%30.15 "Hg10 mi
12:53 AM76 °FOvercast.8 mph52%30.16 "Hg10 mi
11:53 PM
Sun, Oct 23
76 °FOvercast.6 mph52%30.17 "Hg10 mi
10:53 PM76 °FOvercast.7 mph50%30.17 "Hg10 mi
9:53 PM76 °FOvercast.10 mph50%30.16 "Hg10 mi
8:53 PM76 °FPassing clouds.9 mph52%30.15 "Hg10 mi
7:53 PM76 °FPassing clouds.12 mph54%30.14 "Hg10 mi
6:53 PM77 °FOvercast.10 mph48%30.12 "Hg10 mi
5:53 PM78 °FScattered clouds.14 mph48%30.12 "Hg10 mi
4:53 PM79 °FPassing clouds.16 mph47%30.12 "Hg10 mi
3:53 PM80 °FPartly sunny.13 mph47%30.12 "Hg10 mi
2:53 PM80 °FPassing clouds.12 mph45%30.12 "Hg10 mi
1:53 PM81 °FScattered clouds.14 mph49%30.13 "Hg10 mi
12:53 PM81 °FScattered clouds.12 mph45%30.16 "Hg10 mi
11:53 AM80 °FSunny.12 mph49%30.16 "Hg10 mi
10:53 AM77 °FSunny.12 mph52%30.16 "Hg10 mi
9:53 AM73 °FSunny.14 mph55%30.16 "Hg10 mi
8:53 AM69 °FSunny.12 mph59%30.14 "Hg10 mi
Weather by CustomWeather, © 2016

See weather overviewHow to use our weather pages